TimeAWST,TemperatureF,Dew PointF,Humidity,Sea Level PressureIn,VisibilityMPH,Wind Direction,Wind SpeedMPH,Gust SpeedMPH,PrecipitationIn,Events,Conditions,WindDirDegrees,DateUTC
12:00 AM,78,45,21,29.97,,NW,4.6,,,,,310,2013-09-03 16:00:00
12:00 AM,78.8,44.6,30,30.01,-9999.0,NW,4.6,-,N/A,,Unknown,310,2013-09-03 16:00:00
1:00 AM,78.8,44.6,30,29.98,-9999.0,West,6.9,-,N/A,,Unknown,280,2013-09-03 17:00:00
2:00 AM,75,46,24,29.95,,West,3.5,,,,,280,2013-09-03 18:00:00
2:00 AM,75.2,46.4,36,29.98,-9999.0,West,3.5,-,N/A,,Unknown,280,2013-09-03 18:00:00
3:00 AM,74,38,17,29.95,,East,5.8,,,,,80,2013-09-03 19:00:00
3:00 AM,75.2,37.4,25,29.98,-9999.0,East,5.8,-,N/A,,Unknown,80,2013-09-03 19:00:00
4:00 AM,71.6,46.4,41,29.98,-9999.0,Calm,Calm,-,N/A,,Unknown,0,2013-09-03 20:00:00
5:00 AM,71.6,44.6,38,29.98,-9999.0,Calm,Calm,-,N/A,,Unknown,0,2013-09-03 21:00:00
6:00 AM,68,43,29,29.98,,SSW,3.5,,,,,210,2013-09-03 22:00:00
6:00 AM,68.0,42.8,40,30.01,-9999.0,SSW,3.5,-,N/A,,Unknown,210,2013-09-03 22:00:00
7:00 AM,73.4,50.0,44,30.04,-9999.0,ESE,4.6,-,N/A,,Unknown,110,2013-09-03 23:00:00
8:00 AM,81,47,21,30.02,,SSE,9.2,,,,,150,2013-09-04 00:00:00
8:00 AM,80.6,48.2,32,30.04,-9999.0,SSE,9.2,-,N/A,,Unknown,150,2013-09-04 00:00:00
9:00 AM,87,47,16,30.03,,SE,8.1,,,,,130,2013-09-04 01:00:00
9:00 AM,87.8,46.4,24,30.06,-9999.0,SE,8.1,-,N/A,,Unknown,130,2013-09-04 01:00:00
10:00 AM,93.2,39.2,15,30.04,-9999.0,ENE,8.1,-,N/A,,Unknown,60,2013-09-04 02:00:00
11:00 AM,93.2,42.8,17,30.04,-9999.0,ENE,10.4,-,N/A,,Unknown,60,2013-09-04 03:00:00
12:00 PM,96,37,6,29.98,,NNE,11.5,,,,,20,2013-09-04 04:00:00
12:00 PM,96.8,37.4,13,30.01,-9999.0,NNE,11.5,-,N/A,,Unknown,20,2013-09-04 04:00:00
1:00 PM,96.8,32.0,10,29.98,-9999.0,NE,6.9,-,N/A,,Unknown,40,2013-09-04 05:00:00
2:00 PM,97,36,6,29.92,,ENE,9.2,,,,,70,2013-09-04 06:00:00
2:00 PM,96.8,35.6,12,29.95,-9999.0,ENE,9.2,-,N/A,,Unknown,70,2013-09-04 06:00:00
3:00 PM,97,36,6,29.91,,ESE,9.2,,,,,110,2013-09-04 07:00:00
3:00 PM,96.8,35.6,12,29.95,-9999.0,ESE,9.2,-,N/A,,Unknown,110,2013-09-04 07:00:00
4:00 PM,96.8,35.6,12,29.95,-9999.0,East,10.4,-,N/A,,Unknown,90,2013-09-04 08:00:00
5:00 PM,95,36,6,29.91,,NE,9.2,,,,,50,2013-09-04 09:00:00
5:00 PM,95.0,37.4,13,29.95,-9999.0,NE,9.2,-,N/A,,Unknown,50,2013-09-04 09:00:00
6:00 PM,90,41,10,29.93,,East,4.6,,,,,100,2013-09-04 10:00:00
6:00 PM,89.6,41.0,18,29.95,-9999.0,East,4.6,-,N/A,,Unknown,100,2013-09-04 10:00:00
7:00 PM,86.0,42.8,22,29.98,-9999.0,ESE,4.6,-,N/A,,Unknown,110,2013-09-04 11:00:00
8:00 PM,84,41,13,29.98,,ESE,5.8,,,,,120,2013-09-04 12:00:00
8:00 PM,84.2,41.0,22,30.01,-9999.0,ESE,5.8,-,N/A,,Unknown,120,2013-09-04 12:00:00
9:00 PM,83,41,13,29.99,,SSE,6.9,,,,,150,2013-09-04 13:00:00
9:00 PM,82.4,41.0,23,30.01,-9999.0,SSE,6.9,-,N/A,,Unknown,150,2013-09-04 13:00:00
10:00 PM,82.4,41.0,23,30.01,-9999.0,SSE,5.8,-,N/A,,Unknown,150,2013-09-04 14:00:00
11:00 PM,74,46,26,29.98,,SSE,4.6,,,,,160,2013-09-04 15:00:00
11:00 PM,73.4,46.4,38,30.01,-9999.0,SSE,4.6,-,N/A,,Unknown,160,2013-09-04 15:00:00
11:55 PM,80.6,44.6,28,30.01,-9999.0,South,17.3,-,N/A,,Unknown,170,2013-09-04 15:55:00